QFA512 YPAD-YMHB

Flight info

Callsign QFA512
Flight time 1h 38m
Altitude 33000
Route BENDO Y218 GRACY T234 URBEN Y557 MORGO V33 TASUM
Aircraft B739/M-SDE2E3FGHIRWXY/LB1

Departure

Time 2026-04-24 19:48
Airport Adelaide International Airport (YPAD)

Arrival

Time 2026-04-24 21:26
Airport Hobart International Airport (YMHB)
Time Latitude Longitude Altitude Speed Heading
2026-04-24 19:20 -34.93785 138.54072 26 ft 0 kts 320°
2026-04-24 19:34 -34.93787 138.54074 30 ft 2 kts 320°
2026-04-24 19:34 -34.93807 138.54095 30 ft 4 kts 315°
2026-04-24 19:34 -34.93824 138.54119 32 ft 4 kts 294°
2026-04-24 19:34 -34.93829 138.54138 31 ft 0 kts 272°
2026-04-24 19:37 -34.93829 138.54137 31 ft 1 kts 272°
2026-04-24 19:38 -34.93830 138.54125 30 ft 2 kts 253°
2026-04-24 19:38 -34.93839 138.54115 27 ft 2 kts 212°
2026-04-24 19:38 -34.93852 138.54115 27 ft 2 kts 169°
2026-04-24 19:38 -34.93867 138.54124 28 ft 3 kts 152°
2026-04-24 19:39 -34.93889 138.54138 27 ft 4 kts 152°
2026-04-24 19:39 -34.93915 138.54153 26 ft 4 kts 162°
2026-04-24 19:39 -34.93944 138.54151 29 ft 5 kts 200°
2026-04-24 19:39 -34.93974 138.54118 27 ft 7 kts 229°
2026-04-24 19:40 -34.93997 138.54083 27 ft 9 kts 230°
2026-04-24 19:40 -34.94040 138.54020 26 ft 10 kts 230°
2026-04-24 19:40 -34.94090 138.53948 29 ft 12 kts 230°
2026-04-24 19:40 -34.94165 138.53838 24 ft 14 kts 230°
2026-04-24 19:41 -34.94207 138.53777 26 ft 15 kts 230°
2026-04-24 19:41 -34.94274 138.53679 23 ft 15 kts 230°
2026-04-24 19:41 -34.94344 138.53578 22 ft 16 kts 230°
2026-04-24 19:41 -34.94420 138.53467 23 ft 18 kts 230°
2026-04-24 19:42 -34.94496 138.53354 23 ft 17 kts 231°
2026-04-24 19:42 -34.94510 138.53225 22 ft 16 kts 292°
2026-04-24 19:42 -34.94452 138.53107 23 ft 16 kts 297°
2026-04-24 19:42 -34.94466 138.52986 23 ft 15 kts 227°
2026-04-24 19:43 -34.94549 138.52905 22 ft 15 kts 218°
2026-04-24 19:43 -34.94642 138.52818 22 ft 18 kts 218°
2026-04-24 19:43 -34.94742 138.52723 21 ft 19 kts 218°
2026-04-24 19:43 -34.94849 138.52623 19 ft 19 kts 217°
2026-04-24 19:44 -34.94954 138.52524 19 ft 19 kts 218°
2026-04-24 19:44 -34.95056 138.52428 21 ft 18 kts 218°
2026-04-24 19:44 -34.95156 138.52333 20 ft 19 kts 217°
2026-04-24 19:44 -34.95258 138.52237 20 ft 18 kts 218°
2026-04-24 19:45 -34.95342 138.52127 19 ft 17 kts 230°
2026-04-24 19:45 -34.95419 138.52016 21 ft 17 kts 230°
2026-04-24 19:45 -34.95492 138.51908 21 ft 16 kts 230°
2026-04-24 19:45 -34.95565 138.51802 21 ft 17 kts 230°
2026-04-24 19:46 -34.95639 138.51693 21 ft 16 kts 230°
2026-04-24 19:46 -34.95736 138.51640 20 ft 16 kts 171°
2026-04-24 19:46 -34.95804 138.51714 21 ft 14 kts 110°
2026-04-24 19:46 -34.95788 138.51813 19 ft 11 kts 51°
2026-04-24 19:47 -34.95759 138.51855 19 ft 6 kts 49°
2026-04-24 19:47 -34.95730 138.51896 19 ft 8 kts 49°
2026-04-24 19:47 -34.95559 138.52137 21 ft 72 kts 50°
2026-04-24 19:47 -34.95091 138.52812 22 ft 133 kts 50°
2026-04-24 19:48 -34.94500 138.53713 171 ft 160 kts 50°
2026-04-24 19:48 -34.93949 138.54621 952 ft 141 kts 51°
2026-04-24 19:48 -34.92584 138.56753 1603 ft 176 kts 46°
2026-04-24 19:49 -34.91806 138.59864 2233 ft 244 kts 106°
2026-04-24 19:49 -34.93607 138.63679 3244 ft 275 kts 117°
2026-04-24 19:50 -34.96639 138.69962 5616 ft 293 kts 117°
2026-04-24 19:50 -34.97361 138.71506 6211 ft 295 kts 118°
2026-04-24 19:51 -34.99392 138.75874 7674 ft 302 kts 117°
2026-04-24 19:51 -35.00414 138.78088 8426 ft 305 kts 118°
2026-04-24 19:52 -35.02528 138.82694 9954 ft 313 kts 119°
2026-04-24 19:52 -35.03583 138.84995 10611 ft 319 kts 119°
2026-04-24 19:52 -35.04706 138.87445 10807 ft 342 kts 119°
2026-04-24 19:52 -35.05905 138.90065 10981 ft 364 kts 118°
2026-04-24 19:53 -35.07029 138.92920 11271 ft 379 kts 111°
2026-04-24 19:53 -35.07962 138.95935 11814 ft 384 kts 109°
2026-04-24 19:53 -35.09732 139.02141 13170 ft 389 kts 108°
2026-04-24 19:54 -35.10617 139.05209 13787 ft 392 kts 108°
2026-04-24 19:54 -35.11496 139.08205 14337 ft 396 kts 109°
2026-04-24 19:54 -35.12421 139.11317 14884 ft 399 kts 109°
2026-04-24 19:54 -35.13378 139.14513 15433 ft 402 kts 109°
2026-04-24 19:55 -35.14006 139.16604 15784 ft 405 kts 109°
2026-04-24 19:55 -35.15313 139.20949 16494 ft 410 kts 109°
2026-04-24 19:55 -35.16278 139.24157 17003 ft 414 kts 109°
2026-04-24 19:55 -35.17257 139.27417 17527 ft 417 kts 109°
2026-04-24 19:56 -35.18227 139.30653 18020 ft 421 kts 109°
2026-04-24 19:56 -35.19237 139.34025 18535 ft 425 kts 109°
2026-04-24 19:56 -35.20255 139.37430 18978 ft 428 kts 109°
2026-04-24 19:56 -35.21269 139.40825 19420 ft 432 kts 110°
2026-04-24 19:57 -35.22303 139.44290 19882 ft 435 kts 110°
2026-04-24 19:57 -35.23344 139.47783 20347 ft 439 kts 110°
2026-04-24 19:57 -35.24492 139.51250 20781 ft 442 kts 119°
2026-04-24 19:57 -35.26305 139.54290 21212 ft 443 kts 132°
2026-04-24 19:58 -35.28312 139.57163 21674 ft 446 kts 132°
2026-04-24 19:58 -35.30342 139.60055 22107 ft 449 kts 132°
2026-04-24 19:58 -35.32356 139.62943 22527 ft 453 kts 132°
2026-04-24 19:58 -35.34398 139.65901 22946 ft 456 kts 132°
2026-04-24 19:59 -35.36444 139.68892 23388 ft 459 kts 132°
2026-04-24 19:59 -35.38495 139.71910 23812 ft 462 kts 132°
2026-04-24 19:59 -35.40550 139.74948 24174 ft 465 kts 132°
2026-04-24 19:59 -35.42616 139.78010 24602 ft 465 kts 132°
2026-04-24 20:00 -35.44675 139.81065 25009 ft 466 kts 131°
2026-04-24 20:00 -35.46750 139.84146 25375 ft 469 kts 131°
2026-04-24 20:00 -35.48807 139.87201 25721 ft 471 kts 131°
2026-04-24 20:00 -35.50927 139.90352 26088 ft 473 kts 131°
2026-04-24 20:01 -35.52997 139.93433 26444 ft 475 kts 131°
2026-04-24 20:01 -35.55103 139.96568 26800 ft 477 kts 131°
2026-04-24 20:01 -35.57216 139.99718 27142 ft 479 kts 131°
2026-04-24 20:01 -35.59336 140.02880 27483 ft 480 kts 131°
2026-04-24 20:02 -35.60748 140.04988 27704 ft 481 kts 131°
2026-04-24 20:02 -35.63602 140.09251 28131 ft 484 kts 131°
2026-04-24 20:02 -35.65744 140.12455 28437 ft 486 kts 131°
2026-04-24 20:02 -35.67900 140.15683 28756 ft 488 kts 131°
2026-04-24 20:03 -35.70057 140.18916 29064 ft 490 kts 131°
2026-04-24 20:03 -35.72222 140.22162 29407 ft 491 kts 131°
2026-04-24 20:03 -35.74381 140.25404 29817 ft 490 kts 131°
2026-04-24 20:03 -35.76544 140.28655 30292 ft 488 kts 131°
2026-04-24 20:04 -35.78692 140.31888 30711 ft 486 kts 131°
2026-04-24 20:04 -35.80834 140.35114 31073 ft 485 kts 131°
2026-04-24 20:04 -35.82975 140.38340 31393 ft 485 kts 131°
2026-04-24 20:04 -35.85108 140.41557 31715 ft 485 kts 131°
2026-04-24 20:05 -35.87238 140.44773 32084 ft 483 kts 131°
2026-04-24 20:05 -35.89359 140.47979 32458 ft 482 kts 131°
2026-04-24 20:05 -35.91447 140.51138 32782 ft 481 kts 131°
2026-04-24 20:05 -35.93560 140.54337 33074 ft 481 kts 131°
2026-04-24 20:06 -35.95674 140.57540 33383 ft 480 kts 131°
2026-04-24 20:06 -35.97781 140.60737 33708 ft 479 kts 131°
2026-04-24 20:06 -35.99885 140.63932 34012 ft 479 kts 131°
2026-04-24 20:06 -36.01981 140.67118 34325 ft 477 kts 131°
2026-04-24 20:07 -36.03396 140.69269 34525 ft 477 kts 131°
2026-04-24 20:07 -36.06163 140.73481 34808 ft 477 kts 131°
2026-04-24 20:07 -36.08255 140.76669 34997 ft 478 kts 131°
2026-04-24 20:07 -36.10347 140.79861 35221 ft 477 kts 131°
2026-04-24 20:08 -36.12440 140.83058 35297 ft 480 kts 131°
2026-04-24 20:08 -36.16625 140.89458 35306 ft 478 kts 131°
2026-04-24 20:09 -36.20793 140.95814 35301 ft 473 kts 134°
2026-04-24 20:09 -36.25730 141.00948 35313 ft 463 kts 152°
2026-04-24 20:10 -36.31524 141.04287 35319 ft 460 kts 161°
2026-04-24 20:10 -36.37516 141.07268 35324 ft 467 kts 161°
2026-04-24 20:11 -36.43553 141.10314 35316 ft 469 kts 161°
2026-04-24 20:11 -36.49608 141.13424 35314 ft 471 kts 160°
2026-04-24 20:12 -36.55651 141.16549 35312 ft 470 kts 160°
2026-04-24 20:12 -36.61696 141.19682 35323 ft 469 kts 160°
2026-04-24 20:13 -36.67683 141.22788 35309 ft 468 kts 160°
2026-04-24 20:13 -36.73696 141.25910 35314 ft 467 kts 160°
2026-04-24 20:14 -36.79691 141.29029 35311 ft 466 kts 160°
2026-04-24 20:14 -36.85672 141.32146 35321 ft 465 kts 160°
2026-04-24 20:15 -36.90634 141.34735 35322 ft 464 kts 160°
2026-04-24 20:15 -36.96596 141.37852 35316 ft 464 kts 160°
2026-04-24 20:16 -37.02519 141.40953 35319 ft 464 kts 160°
2026-04-24 20:16 -37.08474 141.44077 35318 ft 464 kts 160°
2026-04-24 20:17 -37.14441 141.47212 35319 ft 465 kts 160°
2026-04-24 20:17 -37.23414 141.51937 35319 ft 466 kts 160°
2026-04-24 20:18 -37.29404 141.55098 35321 ft 467 kts 160°
2026-04-24 20:18 -37.35303 141.58394 35311 ft 471 kts 153°
2026-04-24 20:19 -37.40740 141.63075 35320 ft 474 kts 147°
2026-04-24 20:19 -37.46081 141.67964 35318 ft 475 kts 147°
2026-04-24 20:20 -37.51446 141.72837 35318 ft 475 kts 147°
2026-04-24 20:20 -37.56828 141.77677 35314 ft 475 kts 147°
2026-04-24 20:21 -37.62223 141.82519 35321 ft 475 kts 147°
2026-04-24 20:21 -37.67571 141.87325 35310 ft 475 kts 147°
2026-04-24 20:22 -37.72958 141.92178 35307 ft 475 kts 147°
2026-04-24 20:22 -37.78339 141.97036 35305 ft 474 kts 147°
2026-04-24 20:23 -37.83710 142.01893 35298 ft 474 kts 147°
2026-04-24 20:23 -37.89029 142.06712 35304 ft 473 kts 147°
2026-04-24 20:24 -37.94391 142.11579 35305 ft 473 kts 147°
2026-04-24 20:24 -37.99752 142.16454 35297 ft 473 kts 147°
2026-04-24 20:25 -38.05105 142.21331 35298 ft 473 kts 147°
2026-04-24 20:25 -38.10454 142.26213 35295 ft 473 kts 147°
2026-04-24 20:26 -38.15795 142.31097 35302 ft 473 kts 147°
2026-04-24 20:26 -38.21138 142.35992 35293 ft 473 kts 147°
2026-04-24 20:27 -38.26478 142.40893 35294 ft 473 kts 147°
2026-04-24 20:27 -38.31784 142.45772 35293 ft 473 kts 147°
2026-04-24 20:28 -38.37115 142.50682 35298 ft 473 kts 147°
2026-04-24 20:28 -38.41718 142.54930 35304 ft 473 kts 147°
2026-04-24 20:29 -38.46147 142.59024 35308 ft 473 kts 147°
2026-04-24 20:29 -38.51484 142.63964 35303 ft 473 kts 147°
2026-04-24 20:30 -38.56815 142.68909 35304 ft 473 kts 147°
2026-04-24 20:30 -38.61227 142.73009 35310 ft 473 kts 147°
2026-04-24 20:31 -38.66558 142.77971 35305 ft 474 kts 147°
2026-04-24 20:31 -38.71854 142.82910 35304 ft 474 kts 147°
2026-04-24 20:32 -38.77183 142.87889 35305 ft 474 kts 147°
2026-04-24 20:32 -38.81615 142.92037 35301 ft 474 kts 147°
2026-04-24 20:33 -38.86947 142.97036 35305 ft 475 kts 147°
2026-04-24 20:33 -38.92261 143.02089 35303 ft 476 kts 145°
2026-04-24 20:34 -38.97408 143.07429 35304 ft 476 kts 143°
2026-04-24 20:34 -39.02520 143.12857 35300 ft 476 kts 144°
2026-04-24 20:35 -39.07618 143.18232 35298 ft 476 kts 144°
2026-04-24 20:35 -39.12761 143.23622 35302 ft 476 kts 144°
2026-04-24 20:36 -39.17897 143.29001 35300 ft 476 kts 144°
2026-04-24 20:36 -39.23036 143.34393 35297 ft 476 kts 144°
2026-04-24 20:37 -39.28170 143.39794 35305 ft 476 kts 144°
2026-04-24 20:37 -39.33308 143.45210 35301 ft 476 kts 144°
2026-04-24 20:38 -39.38437 143.50626 35297 ft 476 kts 144°
2026-04-24 20:38 -39.43534 143.56019 35302 ft 477 kts 144°
2026-04-24 20:39 -39.48659 143.61453 35305 ft 477 kts 144°
2026-04-24 20:39 -39.53794 143.66908 35300 ft 478 kts 144°
2026-04-24 20:40 -39.58931 143.72377 35302 ft 478 kts 144°
2026-04-24 20:40 -39.64071 143.77859 35309 ft 478 kts 144°
2026-04-24 20:41 -39.69212 143.83353 35301 ft 479 kts 144°
2026-04-24 20:41 -39.74359 143.88864 35301 ft 479 kts 144°
2026-04-24 20:42 -39.79503 143.94384 35309 ft 479 kts 144°
2026-04-24 20:42 -39.84655 143.99923 35301 ft 480 kts 144°
2026-04-24 20:43 -39.89763 144.05426 35305 ft 480 kts 144°
2026-04-24 20:43 -39.94909 144.10981 35305 ft 480 kts 144°
2026-04-24 20:44 -40.00038 144.16529 35309 ft 480 kts 144°
2026-04-24 20:44 -40.05178 144.22100 35306 ft 480 kts 144°
2026-04-24 20:45 -40.10317 144.27680 35307 ft 480 kts 144°
2026-04-24 20:45 -40.15416 144.33230 35306 ft 480 kts 144°
2026-04-24 20:46 -40.20548 144.38825 35303 ft 480 kts 144°
2026-04-24 20:46 -40.25688 144.44442 35306 ft 480 kts 144°
2026-04-24 20:47 -40.30817 144.50058 35317 ft 481 kts 144°
2026-04-24 20:47 -40.35953 144.55693 35309 ft 481 kts 144°
2026-04-24 20:48 -40.41054 144.61300 35305 ft 481 kts 144°
2026-04-24 20:48 -40.46180 144.66948 35308 ft 482 kts 144°
2026-04-24 20:49 -40.51312 144.72613 35311 ft 482 kts 144°
2026-04-24 20:49 -40.56449 144.78297 35308 ft 482 kts 144°
2026-04-24 20:50 -40.61577 144.83981 35332 ft 482 kts 144°
2026-04-24 20:50 -40.66712 144.89685 35319 ft 483 kts 144°
2026-04-24 20:51 -40.71847 144.95402 35327 ft 483 kts 144°
2026-04-24 20:51 -40.76982 145.01132 35324 ft 483 kts 144°
2026-04-24 20:52 -40.82089 145.06841 35325 ft 484 kts 144°
2026-04-24 20:52 -40.87209 145.12609 35339 ft 484 kts 143°
2026-04-24 20:53 -40.92311 145.18420 35343 ft 484 kts 143°
2026-04-24 20:53 -40.97420 145.24256 35333 ft 485 kts 143°
2026-04-24 20:54 -41.02531 145.30101 35352 ft 485 kts 143°
2026-04-24 20:54 -41.07641 145.35951 35352 ft 486 kts 143°
2026-04-24 20:55 -41.12757 145.41821 35371 ft 486 kts 143°
2026-04-24 20:55 -41.17034 145.46738 35362 ft 487 kts 143°
2026-04-24 20:56 -41.22117 145.52593 35360 ft 487 kts 143°
2026-04-24 20:56 -41.27225 145.58492 35362 ft 487 kts 143°
2026-04-24 20:57 -41.32338 145.64408 35383 ft 486 kts 143°
2026-04-24 20:57 -41.37439 145.70322 35373 ft 485 kts 143°
2026-04-24 20:58 -41.42513 145.76218 35371 ft 484 kts 143°
2026-04-24 20:58 -41.47592 145.82133 35376 ft 483 kts 143°
2026-04-24 20:59 -41.52651 145.88036 35375 ft 483 kts 143°
2026-04-24 20:59 -41.57668 145.93904 35372 ft 483 kts 143°
2026-04-24 21:00 -41.62719 145.99824 35379 ft 483 kts 143°
2026-04-24 21:00 -41.67731 146.05718 35359 ft 468 kts 143°
2026-04-24 21:01 -41.70134 146.08564 35365 ft 452 kts 143°
2026-04-24 21:01 -41.72460 146.11311 35291 ft 439 kts 143°
2026-04-24 21:01 -41.74054 146.13185 34793 ft 440 kts 143°
2026-04-24 21:02 -41.75136 146.14455 34466 ft 438 kts 143°
2026-04-24 21:02 -41.77412 146.17129 34037 ft 427 kts 143°
2026-04-24 21:03 -41.79626 146.19740 33235 ft 427 kts 143°
2026-04-24 21:03 -41.81895 146.22404 31885 ft 440 kts 143°
2026-04-24 21:03 -41.84237 146.25172 30377 ft 457 kts 142°
2026-04-24 21:03 -41.86573 146.28178 28891 ft 471 kts 134°
2026-04-24 21:04 -41.88563 146.31599 28384 ft 459 kts 125°
2026-04-24 21:04 -41.90132 146.35282 27807 ft 449 kts 118°
2026-04-24 21:04 -41.91515 146.38974 27293 ft 439 kts 117°
2026-04-24 21:04 -41.92852 146.42622 26769 ft 431 kts 117°
2026-04-24 21:05 -41.94167 146.46204 26250 ft 426 kts 117°
2026-04-24 21:05 -41.95493 146.49786 25754 ft 431 kts 117°
2026-04-24 21:05 -41.96863 146.53454 25240 ft 446 kts 117°
2026-04-24 21:05 -41.98266 146.57191 24654 ft 446 kts 117°
2026-04-24 21:06 -41.99651 146.60873 24117 ft 436 kts 117°
2026-04-24 21:06 -42.01007 146.64476 23510 ft 427 kts 117°
2026-04-24 21:06 -42.02331 146.67997 22948 ft 417 kts 117°
2026-04-24 21:06 -42.03611 146.71403 22421 ft 408 kts 117°
2026-04-24 21:07 -42.04889 146.74811 21943 ft 408 kts 117°
2026-04-24 21:07 -42.06169 146.78228 21450 ft 411 kts 117°
2026-04-24 21:07 -42.07467 146.81698 20954 ft 421 kts 117°
2026-04-24 21:07 -42.08791 146.85242 20427 ft 424 kts 117°
2026-04-24 21:08 -42.10110 146.88778 19892 ft 422 kts 117°
2026-04-24 21:08 -42.11427 146.92313 19352 ft 420 kts 117°
2026-04-24 21:08 -42.12734 146.95826 18830 ft 419 kts 117°
2026-04-24 21:08 -42.14038 146.99332 18245 ft 418 kts 117°
2026-04-24 21:09 -42.15332 147.02817 17705 ft 415 kts 117°
2026-04-24 21:09 -42.16625 147.06283 17174 ft 411 kts 118°
2026-04-24 21:09 -42.18262 147.09363 16633 ft 403 kts 139°
2026-04-24 21:09 -42.20348 147.11863 16179 ft 398 kts 141°
2026-04-24 21:10 -42.22419 147.14332 15673 ft 397 kts 140°
2026-04-24 21:10 -42.24467 147.16818 15148 ft 395 kts 140°
2026-04-24 21:10 -42.26490 147.19311 14668 ft 393 kts 139°
2026-04-24 21:10 -42.28501 147.21806 14180 ft 391 kts 139°
2026-04-24 21:11 -42.30498 147.24298 13635 ft 389 kts 139°
2026-04-24 21:11 -42.32526 147.26620 13169 ft 384 kts 148°
2026-04-24 21:11 -42.34810 147.28389 12840 ft 374 kts 154°
2026-04-24 21:11 -42.37093 147.30009 12485 ft 367 kts 154°
2026-04-24 21:12 -42.39331 147.31609 12151 ft 358 kts 154°
2026-04-24 21:12 -42.40797 147.32674 11916 ft 349 kts 153°
2026-04-24 21:12 -42.43548 147.34707 11499 ft 331 kts 153°
2026-04-24 21:12 -42.45527 147.36186 11198 ft 319 kts 152°
2026-04-24 21:13 -42.47442 147.37622 10915 ft 309 kts 152°
2026-04-24 21:13 -42.49306 147.39020 10637 ft 302 kts 152°
2026-04-24 21:13 -42.51128 147.40389 10367 ft 299 kts 151°
2026-04-24 21:13 -42.52968 147.41771 9856 ft 305 kts 151°
2026-04-24 21:14 -42.54808 147.43154 9526 ft 301 kts 151°
2026-04-24 21:14 -42.56620 147.44517 9227 ft 295 kts 151°
2026-04-24 21:14 -42.58405 147.45861 9007 ft 290 kts 151°
2026-04-24 21:14 -42.60089 147.47304 8948 ft 291 kts 142°
2026-04-24 21:15 -42.61659 147.49078 8777 ft 298 kts 139°
2026-04-24 21:15 -42.63232 147.50952 8432 ft 301 kts 138°
2026-04-24 21:15 -42.64811 147.52818 8098 ft 298 kts 139°
2026-04-24 21:15 -42.66376 147.54632 7788 ft 294 kts 139°
2026-04-24 21:16 -42.67407 147.55814 7577 ft 291 kts 139°
2026-04-24 21:16 -42.68948 147.57562 7178 ft 287 kts 139°
2026-04-24 21:16 -42.70946 147.59844 6799 ft 274 kts 139°
2026-04-24 21:16 -42.71901 147.60937 6624 ft 268 kts 139°
2026-04-24 21:17 -42.73306 147.62539 6347 ft 259 kts 139°
2026-04-24 21:17 -42.74682 147.64111 6100 ft 255 kts 139°
2026-04-24 21:17 -42.76014 147.65635 5902 ft 246 kts 139°
2026-04-24 21:17 -42.77307 147.67113 5644 ft 239 kts 139°
2026-04-24 21:18 -42.78557 147.68542 5440 ft 230 kts 140°
2026-04-24 21:18 -42.79756 147.69915 5224 ft 220 kts 140°
2026-04-24 21:18 -42.80902 147.71227 5001 ft 211 kts 140°
2026-04-24 21:18 -42.81998 147.72483 4792 ft 201 kts 141°
2026-04-24 21:19 -42.83038 147.73677 4606 ft 191 kts 141°
2026-04-24 21:19 -42.84056 147.74845 4481 ft 193 kts 142°
2026-04-24 21:19 -42.85083 147.76019 4315 ft 197 kts 143°
2026-04-24 21:19 -42.86281 147.76806 4083 ft 189 kts 184°
2026-04-24 21:20 -42.88503 147.75715 3804 ft 163 kts 212°
2026-04-24 21:20 -42.89508 147.75028 3637 ft 162 kts 213°
2026-04-24 21:20 -42.90525 147.74331 3528 ft 170 kts 213°
2026-04-24 21:21 -42.91606 147.73591 3367 ft 175 kts 213°
2026-04-24 21:21 -42.92516 147.72600 3138 ft 161 kts 246°
2026-04-24 21:21 -42.92766 147.71210 3056 ft 149 kts 272°
2026-04-24 21:21 -42.92773 147.69767 2954 ft 154 kts 271°
2026-04-24 21:22 -42.92785 147.68339 2809 ft 151 kts 271°
2026-04-24 21:22 -42.92792 147.66951 2643 ft 139 kts 271°
2026-04-24 21:22 -42.92797 147.65675 2529 ft 135 kts 272°
2026-04-24 21:22 -42.92779 147.64383 2385 ft 136 kts 281°
2026-04-24 21:23 -42.92309 147.63305 2254 ft 135 kts 310°
2026-04-24 21:23 -42.91688 147.62314 2061 ft 136 kts 307°
2026-04-24 21:23 -42.91080 147.61330 1870 ft 135 kts 310°
2026-04-24 21:23 -42.90425 147.60393 1696 ft 138 kts 313°
2026-04-24 21:24 -42.89735 147.59453 1510 ft 140 kts 314°
2026-04-24 21:24 -42.89039 147.58513 1345 ft 141 kts 315°
2026-04-24 21:24 -42.88334 147.57569 1160 ft 144 kts 315°
2026-04-24 21:24 -42.87631 147.56549 935 ft 148 kts 313°
2026-04-24 21:25 -42.86957 147.55505 708 ft 150 kts 314°
2026-04-24 21:25 -42.86236 147.54498 535 ft 144 kts 319°
2026-04-24 21:25 -42.85497 147.53602 315 ft 141 kts 320°
2026-04-24 21:25 -42.84780 147.52727 124 ft 135 kts 317°
2026-04-24 21:26 -42.84132 147.51854 24 ft 124 kts 316°
2026-04-24 21:26 -42.83654 147.51228 22 ft 49 kts 315°
2026-04-24 21:26 -42.83413 147.50906 21 ft 44 kts 314°
2026-04-24 21:26 -42.83316 147.50717 21 ft 21 kts 275°
2026-04-24 21:27 -42.83393 147.50561 23 ft 21 kts 200°
2026-04-24 21:27 -42.83504 147.50661 23 ft 20 kts 132°
2026-04-24 21:27 -42.83569 147.50692 21 ft 7 kts 206°
2026-04-24 21:27 -42.83610 147.50657 22 ft 7 kts 190°
2026-04-24 21:28 -42.83648 147.50685 23 ft 5 kts 137°
2026-04-24 21:28 -42.83667 147.50707 22 ft 3 kts 150°
2026-04-24 21:28 -42.83673 147.50708 22 ft 0 kts 169°
2026-04-24 21:28 -42.83677 147.50708 21 ft 1 kts 183°
2026-04-24 21:29 -42.83681 147.50704 21 ft 1 kts 208°
2026-04-24 21:29 -42.83685 147.50700 22 ft 1 kts 214°
2026-04-24 21:29 -42.83689 147.50696 21 ft 1 kts 219°
2026-04-24 21:29 -42.83693 147.50691 21 ft 1 kts 223°
2026-04-24 21:30 -42.83696 147.50687 22 ft 1 kts 224°
2026-04-24 21:30 -42.83699 147.50683 21 ft 1 kts 224°
2026-04-24 21:30 -42.83702 147.50679 21 ft 1 kts 224°
2026-04-24 21:30 -42.83705 147.50675 21 ft 1 kts 224°
2026-04-24 21:31 -42.83707 147.50672 21 ft 0 kts 224°
2026-04-24 21:31 -42.83707 147.50671 21 ft 0 kts 224°
2026-04-24 21:31 -42.83708 147.50671 21 ft 0 kts 224°